TimeMDT,TemperatureF,Dew PointF,Humidity,Sea Level PressureIn,VisibilityMPH,Wind Direction,Wind SpeedMPH,Gust SpeedMPH,PrecipitationIn,Events,Conditions,WindDirDegrees,DateUTC
12:53 AM,60.1,26.1,27,29.78,10.0,SSW,17.3,24.2,N/A,,Clear,210,2012-11-01 06:53:00
1:53 AM,57.0,28.0,33,29.78,10.0,West,9.2,-,N/A,,Clear,280,2012-11-01 07:53:00
2:53 AM,55.0,28.0,35,29.79,10.0,SSW,3.5,-,N/A,,Clear,210,2012-11-01 08:53:00
3:53 AM,48.9,30.9,50,29.80,10.0,Calm,Calm,-,N/A,,Clear,0,2012-11-01 09:53:00
4:53 AM,52.0,28.9,41,29.81,10.0,South,8.1,-,N/A,,Clear,190,2012-11-01 10:53:00
6:53 AM,48.9,30.0,48,29.88,10.0,Calm,Calm,-,N/A,,Clear,0,2012-11-01 12:53:00
7:53 AM,48.0,30.9,52,29.89,10.0,South,5.8,-,N/A,,Mostly Cloudy,170,2012-11-01 13:53:00
8:53 AM,50.0,33.1,52,29.90,10.0,Calm,Calm,-,N/A,,Overcast,0,2012-11-01 14:53:00
9:53 AM,52.0,32.0,47,29.92,10.0,WNW,6.9,-,N/A,,Mostly Cloudy,290,2012-11-01 15:53:00
10:53 AM,53.1,36.0,52,29.96,10.0,West,5.8,-,N/A,,Overcast,270,2012-11-01 16:53:00
11:31 AM,53.6,37.4,54,30.02,10.0,WNW,4.6,-,N/A,,Mostly Cloudy,300,2012-11-01 17:31:00
11:53 AM,54.0,37.0,53,29.95,10.0,WNW,11.5,17.3,N/A,,Partly Cloudy,300,2012-11-01 17:53:00
12:53 PM,54.0,37.9,55,29.95,10.0,West,11.5,-,N/A,,Clear,260,2012-11-01 18:53:00
1:53 PM,53.1,39.0,59,29.94,10.0,SSW,8.1,-,N/A,,Mostly Cloudy,210,2012-11-01 19:53:00
2:53 PM,57.0,37.0,47,29.92,10.0,SSW,8.1,-,N/A,,Partly Cloudy,200,2012-11-01 20:53:00
3:53 PM,57.0,36.0,45,29.93,10.0,WNW,4.6,-,0.00,,Mostly Cloudy,300,2012-11-01 21:53:00
4:53 PM,57.0,35.1,44,29.93,10.0,West,5.8,-,N/A,,Overcast,270,2012-11-01 22:53:00
5:53 PM,54.0,36.0,51,29.94,10.0,West,8.1,-,N/A,,Clear,260,2012-11-01 23:53:00
6:53 PM,48.9,36.0,61,29.96,10.0,West,6.9,-,N/A,,Clear,260,2012-11-02 00:53:00
7:53 PM,43.0,35.1,74,30.00,10.0,Calm,Calm,-,N/A,,Clear,0,2012-11-02 01:53:00
8:53 PM,42.1,35.1,76,30.01,10.0,South,5.8,-,N/A,,Clear,190,2012-11-02 02:53:00
9:53 PM,41.0,34.0,76,30.01,10.0,South,5.8,-,N/A,,Clear,190,2012-11-02 03:53:00
10:53 PM,39.0,33.1,79,30.03,10.0,SSW,3.5,-,N/A,,Partly Cloudy,210,2012-11-02 04:53:00
11:53 PM,39.9,33.1,77,30.04,10.0,SW,4.6,-,N/A,,Mostly Cloudy,220,2012-11-02 05:53:00